Location: Newark
(45.5000°N, 11.4167°E)
Time: 04:07:51
(UTC+00:00)

A-11 Canister half - Pass Details

Date: 24 August 2019
Orbit: 1514 x 1686 km, 47.2° (Epoch: 13 October)

Event Time Altitude Azimuth Distance (km) Brightness Sun altitude
Rises 19:21:00 0° 270° (W) 4,709 12.7 -12.7°
Reaches altitude 10° 19:24:02 10° 271° (W) 3,745 12.0 -13.1°
Maximum altitude 19:33:36 81° 359° (N) 1,621 9.1 -14.5°
Enters shadow 19:43:26 10° 88° (E) 3,847 10.6 -16.0°
Drops below altitude 10° 19:43:33 10° 88° (E) 3,884 - -16.0°
Sets 19:46:45 0° 90° (E) 4,891 - -16.4°
